Regional Weather Roundup
Issued by NWS Boston, MA

Current Version | Previous Version | Text Only | Print | Product List | Glossary Off
Versions: 1 2 3 4 5 6 7 8 9 10 11 12 13 14 15 16 17 18 19 20 21 22 23 24 25 26 27

000
ASUS41 KBOX 211410
RWRBOX

REGIONAL WEATHER ROUNDUP
NATIONAL WEATHER SERVICE TAUNTON MA
1000 AM EDT SAT OCT 21 2017

NOTE:  "FAIR" INDICATES FEW OR NO CLOUDS BELOW 12,000 FEET WITH NO
SIGNIFICANT WEATHER AND/OR OBSTRUCTIONS TO VISIBILITY.

MAZALL-211500-
EASTERN MASSACHUSETTS

CITY           SKY/WX    TMP DP  RH WIND       PRES   REMARKS
BOSTON         MOSUNNY   63  40  42 SW5       30.28S
BEVERLY        SUNNY     63  42  46 SW5       30.27S
LAWRENCE       SUNNY     62  42  47 SW6       30.29R
BEDFORD        SUNNY     63  40  42 VRB3      30.27S
BLUE HILL        N/A     62  37  39 W7        30.28R
NORWOOD        SUNNY     62  42  47 SW5       30.29R
MARSHFIELD     SUNNY     63  45  51 W6        30.29R
PLYMOUTH       SUNNY     62  42  47 SW5       30.30R
TAUNTON        SUNNY     62  42  47 CALM      30.30R
NEW BEDFORD    SUNNY     63  43  48 CALM      30.30R
$$

MAZALL-211500-
CAPE COD AND THE ISLANDS

CITY           SKY/WX    TMP DP  RH WIND       PRES   REMARKS
FALMOUTH       SUNNY     63  43  48 CALM      30.31R
HYANNIS        SUNNY     64  43  46 VRB5      30.28S
CHATHAM        SUNNY     65  46  50 S6        30.30R
PROVINCETOWN   SUNNY     64  48  56 SW6       30.30R
NANTUCKET        N/A     64  50  60 S6        30.30R
MARTHAS VNYRD  SUNNY     64  42  44 S6        30.30R
$$

MAZALL-211500-
CENTRAL AND WESTERN MASSACHUSETTS

CITY           SKY/WX    TMP DP  RH WIND       PRES   REMARKS
WORCESTER      SUNNY     60  31  33 W13       30.31R
FITCHBURG      SUNNY     65  40  39 W5        30.30R
ORANGE         SUNNY     49  43  80 CALM      30.31S
SPRINGFIELD    MOSUNNY   54  41  61 S3        30.31S
WESTFIELD      SUNNY     55  41  59 VRB3      30.32S
NORTH ADAMS    SUNNY     50  40  68 CALM      30.33F
PITTSFIELD     SUNNY     53  40  61 CALM      30.32F
$$

RIZALL-211500-
RHODE ISLAND

CITY           SKY/WX    TMP DP  RH WIND       PRES   REMARKS
PROVIDENCE     SUNNY     63  43  48 W5        30.31R
NEWPORT        SUNNY     63  51  65 S6        30.31R
BLOCK ISLAND   SUNNY     66  42  41 SW5       30.33R
SMITHFIELD     SUNNY     63  42  46 W3        30.31R
WESTERLY       SUNNY     62  42  47 CALM      30.33R
$$

CTZALL-211500-
CONNECTICUT

CITY           SKY/WX    TMP DP  RH WIND       PRES   REMARKS
BRADLEY INTL   MOSUNNY   56  42  59 CALM      30.32F
HARTFORD       SUNNY     56  44  64 S3        30.33S
BRIDGEPORT     SUNNY     65  40  39 NW5       30.33R
DANBURY        SUNNY     57  43  59 CALM      30.35S
GROTON         SUNNY     61  46  57 CALM      30.32R
NEW HAVEN      SUNNY     63  37  38 NW6       30.33R
CHESTER        FAIR      70  36  28 N5        30.33R
MERIDEN        SUNNY     61  42  49 CALM      30.33S
WILLIMANTIC    SUNNY     54  43  66 CALM      30.33S
OXFORD         SUNNY     59  39  47 CALM      30.34S
$$

MEZ002-015-021-024-NHZ003-005-008-011-012-014-VTZ005-008-211500-
NORTHERN NEW ENGLAND

CITY           SKY/WX    TMP DP  RH WIND       PRES   REMARKS
PORTLAND ME    MOSUNNY   61  40  45 CALM      30.25S
BANGOR ME      MOSUNNY   56  38  50 SW5       30.26R
CONCORD NH     SUNNY     54  40  59 CALM      30.28R
MANCHESTER NH  SUNNY     56  39  53 CALM      30.27R
NASHUA NH      SUNNY     59  44  57 CALM      30.28S
PORTSMOUTH NH  MOSUNNY   62  38  41 W6        30.25R
JAFFREY NH     SUNNY     58  39  49 S8        30.30S
KEENE NH       SUNNY     52  43  71 CALM      30.32S
BURLINGTON VT  SUNNY     60  38  43 S10       30.26S
MT. WASHINGTON PTSUNNY   41  37  87 NW46        N/A  WCI  28
$$

NYZ052-076-211500-
EASTERN NEW YORK

CITY           SKY/WX    TMP DP  RH WIND       PRES   REMARKS
ALBANY         MOSUNNY   55  40  56 CALM      30.33S
NEW YORK CITY  MOSUNNY   65  46  50 CALM      30.33S
$$

ANZALL-211500-
MARINE OBSERVATIONS

STATION/POSITION TIME  TEMP    WIND        PRES    VSBY  WAVE
                       AIR SEA DIR/SP/G                  HT/PER
                 (UTC) (F)     (DEG/KT/KT) (MB)    (MI)  (FT/S)
BOSTON BUOY      1350   58 59  190/  4/  6 1024.8R         1/ 8
BUZZARDS BAY     1300   61     230/  2/  3 1026.2R
NANTUCKET SOUND  1350   63 62  200/  4/  4 1025.9R         0
MASS BAY-STELLWA 1304   58 59  240/ 10/ 12 1024.3R         1/ 8
ISLE OF SHOALS   1300   56     250/  7/  8 1024.3R
S OF BLOCK IS    NOT AVBL
$$

......................KEY.........................
  SKY/WX - SKY CONDITION/PRESENT WEATHER
  TMP    - TEMPERATURE IN FAHRENHEIT
  DWPT   - DEWPOINT IN FAHRENHEIT
  RH     - RELATIVE HUMIDITY IN PERCENT
  WIND   - DIRECTION AND SPEED IN MPH
  PRES   - MEAN SEA LEVEL PRESSURE IN INCHES OF HG
  WCI    - WIND CHILL INDEX
  VSB    - VISIBILITY IN MILES
  HX     - HEAT INDEX
  TC     - TEMPERATURE IN CELSIUS
  VRB    - VARIABLE WIND DIRECTION
  N/A    - NOT AVAILABLE




USA.gov is the U.S. government's official web portal to all federal, state and local government web resources and services.